Eugene, OR

10:49 PM PDT on July 21, 2017 (GMT -0700)
Mahlon Sweet

Weather History for KEUG - November, 2012

Change the Weather History Date:

Wednesday, November 7, 2012

  Actual Average Record
Temperature  
Mean Temperature 50 °F 47 °F  
Max Temperature 59 °F 55 °F 69 °F (1978)
Min Temperature 40 °F 39 °F 24 °F (1935)
Degree Days  
Heating Degree Days 15 18  
Month to date heating degree days 59 122  
Since 1 July heating degree days 485 692  
Cooling Degree Days 0 0  
Month to date cooling degree days 0 0  
Year to date cooling degree days 230 239  
Moisture  
Dew Point 45 °F    
Average Humidity 76    
Maximum Humidity 100    
Minimum Humidity 51    
Precipitation  
Precipitation T in 0.23 in 2.56 in (2006)
Month to date precipitation 0.58 1.43  
Year to date precipitation 35.71 31.98  
Snow  
Snow 0.00 in - - ()
Month to date snowfall 0.0  
Since 1 July snowfall 0.0  
Since 1 September snowfall 0.0  
Snow Depth 0.00 in    
Sea Level Pressure  
Sea Level Pressure 30.12 in    
Wind  
Wind Speed 3 mph (NW)    
Max Wind Speed 13 mph    
Max Gust Speed 19 mph    
Visibility 10 miles    
Events Fog , Rain    
T = Trace of Precipitation, MM = Missing Value Source: NWS Daily Summary

Daily Weather History Graph

Daily Weather History Graph

Search for Another Location

Airport or City:

Trip Planner

Search our weather history database for the weather conditions in past years. The results will help you decide how hot, cold, wet, or windy it might be!

Date:

Astronomy

Nov. 07, 2012 Rise Set
Actual Time 6:58 AM PST 4:54 PM PST
Civil Twilight 6:27 AM PST 5:24 PM PST
Nautical Twilight 5:53 AM PST 5:59 PM PST
Astronomical Twilight 5:19 AM PST 6:33 PM PST
Moon No Moon Rise 1:19 PM PST (11/7)
Length of Visible Light 10h 57m
Length of Day
9h 55m
Last Quarter, 42% of the Moon is Illuminated
Nov 7
Last Quarter
Nov 13
New
Nov 20
First Quarter
Nov 28
Full
Dec 6
Last Quarter

Hourly Weather History & Observations

Time (PST) Temp. Windchill Dew Point Humidity Pressure Visibility Wind Dir Wind Speed Gust Speed Precip Events Conditions
12:54 AM 53.1 °F - 51.1 °F 93% 30.16 in 7.0 mi North 6.9 mph - 0.00 in Rain Light Rain
1:07 AM 53.6 °F - 50.0 °F 88% 30.16 in 10.0 mi NNW 4.6 mph - 0.00 in   Overcast
1:31 AM 53.6 °F - 51.8 °F 94% 30.16 in 10.0 mi WNW 4.6 mph - 0.00 in   Overcast
1:45 AM 53.6 °F - 50.0 °F 88% 30.16 in 10.0 mi WNW 3.5 mph - 0.00 in   Overcast
1:54 AM 52.0 °F - 48.9 °F 89% 30.16 in 10.0 mi NW 4.6 mph - 0.00 in   Scattered Clouds
2:54 AM 46.0 °F 44.8 °F 44.1 °F 93% 30.18 in 10.0 mi NW 3.5 mph - N/A   Clear
3:54 AM 46.4 °F - 44.6 °F 93% 30.18 in 10.0 mi Calm Calm - N/A   Scattered Clouds
4:54 AM 42.1 °F - 42.1 °F 100% 30.20 in 4.0 mi Calm Calm - N/A   Clear
5:54 AM 44.1 °F - 43.0 °F 96% 30.20 in 10.0 mi Calm Calm - N/A   Partly Cloudy
6:54 AM 41.0 °F 39.0 °F 41.0 °F 100% 30.21 in 10.0 mi South 3.5 mph - N/A Fog Shallow Fog
7:54 AM 45.0 °F 43.5 °F 44.1 °F 97% 30.21 in 10.0 mi SSE 3.5 mph - N/A   Scattered Clouds
8:54 AM 48.9 °F - 46.9 °F 93% 30.20 in 10.0 mi SSE 3.5 mph - N/A   Partly Cloudy
9:54 AM 52.0 °F - 46.9 °F 83% 30.19 in 10.0 mi Calm Calm - N/A   Scattered Clouds
10:54 AM 55.9 °F - 46.9 °F 72% 30.19 in 10.0 mi Calm Calm - N/A   Scattered Clouds
11:54 AM 55.9 °F - 44.1 °F 64% 30.17 in 10.0 mi Calm Calm - N/A   Scattered Clouds
12:54 PM 57.9 °F - 39.9 °F 51% 30.14 in 10.0 mi Calm Calm - N/A   Mostly Cloudy
1:54 PM 59.0 °F - 41.0 °F 51% 30.12 in 10.0 mi North 3.5 mph - N/A   Mostly Cloudy
2:54 PM 57.0 °F - 39.9 °F 53% 30.11 in 10.0 mi North 4.6 mph - N/A   Mostly Cloudy
3:54 PM 53.1 °F - 45.0 °F 74% 30.10 in 10.0 mi North 8.1 mph - N/A   Scattered Clouds
4:54 PM 50.0 °F - 44.1 °F 80% 30.09 in 10.0 mi North 3.5 mph - N/A   Scattered Clouds
5:54 PM 46.0 °F 43.9 °F 42.1 °F 86% 30.06 in 10.0 mi North 4.6 mph - N/A   Scattered Clouds
6:54 PM 45.0 °F 41.8 °F 42.1 °F 90% 30.05 in 10.0 mi NW 5.8 mph - N/A   Mostly Cloudy
7:54 PM 46.0 °F 44.8 °F 42.1 °F 86% 30.03 in 10.0 mi NW 3.5 mph - N/A   Mostly Cloudy
8:54 PM 44.1 °F 42.5 °F 42.1 °F 93% 30.01 in 10.0 mi WSW 3.5 mph - N/A   Mostly Cloudy
9:54 PM 45.0 °F - 43.0 °F 93% 29.99 in 10.0 mi Calm Calm - N/A   Mostly Cloudy
10:54 PM 45.0 °F - 43.0 °F 93% 29.97 in 10.0 mi Calm Calm - N/A   Overcast
11:54 PM 44.1 °F 41.5 °F 42.1 °F 93% 29.94 in 10.0 mi SE 4.6 mph - N/A   Overcast